Regional Weather Roundup
Issued by NWS

Home | Current Version | Previous Version | Graphics & Text | Print | Product List | Glossary On
Versions: 1 2 3 4 5 6 7 8 9 10 11 12 13 14 15 16 17 18 19 20 21 22 23 24 25 26 27 28 29 30 31 32 33 34 35 36 37 38 39 40 41 42 43 44 45 46 47 48 49 50
233
ASUS43 KOAX 271910
RWRNE

WEATHER ROUNDUP FOR NEBRASKA
NATIONAL WEATHER SERVICE OMAHA NE
200 PM CDT THU APR 27 2017

NOTES: SATELLITE DATA IS BEING USED TO AUGMENT CLOUD COVER ABOVE
       12000 FEET.
       "FAIR" INDICATES FEW OR NO CLOUDS BELOW 12,000 FEET WITH NO
       SIGNIFICANT WEATHER AND/OR OBSTRUCTIONS TO VISIBILITY.

  * THESE STATIONS DO NOT REPORT WEATHER SUCH AS RAIN...SNOW OR FOG.

NEZ001>004-019>022-054>056-272000-
NEBRASKA PANHANDLE

CITY           SKY/WX    TMP DP  RH WIND       PRES   REMARKS
SCOTTSBLUFF    LGT RAIN  46  40  79 S5        29.56S
ALLIANCE       CLOUDY    49  38  65 SE14      29.55F
CHADRON        CLOUDY    50  35  56 E10       29.57F
KIMBALL        LGT RAIN  46  40  82 N10       29.54F
SIDNEY         CLOUDY    51  42  71 NE15      29.54F
$$

NEZ057>060-069>072-079>082-272000-
SOUTHWEST NEBRASKA

CITY           SKY/WX    TMP DP  RH WIND       PRES   REMARKS
NORTH PLATTE   PTSUNNY   53  37  54 SE14      29.62F
IMPERIAL       MOSUNNY   53  36  52 E18G25    29.55F
LEXINGTON      CLOUDY    52  34  51 SE14      29.66F
MCCOOK         CLOUDY    51  35  54 E15       29.59F
OGALLALA       CLOUDY    53  35  51 E14       29.57F
$$

NEZ005>010-023>029-035>040-094-272000-
NORTH CENTRAL NEBRASKA

CITY           SKY/WX    TMP DP  RH WIND       PRES   REMARKS
VALENTINE      SUNNY     53  29  39 E12       29.65F
AINSWORTH      SUNNY     49  33  53 E3        29.65F
BROKEN BOW       N/A     51  34  52 SE9       29.65F
O`NEILL        MOSUNNY   47  33  56 N5        29.69F
ORD            CLOUDY    51  32  48 VRB5      29.67F
THEDFORD       LGT RAIN  52  33  49 S13       29.64S
$$

NEZ041-046>049-061>064-073>077-083>087-272000-
SOUTH CENTRAL NEBRASKA

CITY           SKY/WX    TMP DP  RH WIND       PRES   REMARKS
GRAND ISLAND   CLOUDY    53  30  41 W5        29.70F
AURORA         CLOUDY    54  30  39 SE3       29.70S
HASTINGS       CLOUDY    51  31  46 S6        29.70F
HEBRON         CLOUDY    54  31  41 CALM      29.71F
HOLDREGE       DRIZZLE   48  37  65 SE12      29.66F
KEARNEY *      PTSUNNY   54  30  40 SE7       29.68F
YORK           MOSUNNY   55  32  41 W5        29.70F
$$

NEZ011>018-030>034-042>045-272000-
NORTHEAST NEBRASKA

CITY           SKY/WX    TMP DP  RH WIND       PRES   REMARKS
NORFOLK        CLOUDY    47  33  58 MISG      29.70F
ALBION         MOSUNNY   50  33  52 NW3       29.70S
BLAIR          MOSUNNY   49  35  58 SW6       29.71F
FREMONT        MOSUNNY   50  34  54 CALM      29.72F
TEKAMAH        SUNNY     53  33  46 NW14      29.71F
WAYNE          SUNNY     48  35  60 NW12      29.70F
$$

NEZ050>053-065>068-078-088>093-272000-
SOUTHEAST NEBRASKA

CITY           SKY/WX    TMP DP  RH WIND       PRES   REMARKS
LINCOLN        SUNNY     56  32  40 CALM      29.72F
OMAHA EPPLEY   MOSUNNY   52  34  50 CALM      29.72F
BEATRICE       PTSUNNY   55  34  45 SW6       29.72S
FALLS CITY     MOSUNNY   57  36  45 W7        29.71F
NEBRASKA CITY  SUNNY     54  28  35 NW6       29.72F
PLATTSMOUTH    SUNNY     52  30  44 W9        29.72F
$$

NEZ044-045-051>053-067-272000-
OMAHA AREA

CITY           SKY/WX    TMP DP  RH WIND       PRES   REMARKS
OMAHA EPPLEY   MOSUNNY   52  34  50 CALM      29.72F
BLAIR          MOSUNNY   49  35  58 SW6       29.71F
FREMONT        MOSUNNY   50  34  54 CALM      29.72F
MILLARD        MOSUNNY   50  36  58 CALM      29.72F
OFFUTT AFB     SUNNY     51  35  55 NW8       29.72F
PLATTSMOUTH    SUNNY     52  30  44 W9        29.72F
WAHOO          FAIR      51  31  46 N3        29.71F
$$




USA.gov is the U.S. government's official web portal to all federal, state and local government web resources and services.